EHI
0 0 0 0 0 0 0 0 0 0 0 1 1 4 12 18 19 24 31 35 35 31 27 21 14 10 10 11 14 17 18 17 14 14 13 8 5 5 7 8 6 3 2 1
0 0 0 0 0 0 0 0 0 0 0 0 0 2 9 16 18 23 31 35 35 31 26 20 12 8 8 10 11 14 16 13 11 11 10 7 5 5 6 6 3 1 1 0
0 0 0 0 0 0 0 0 0 0 0 0 0 1 8 15 18 21 29 34 33 30 25 18 10 6 7 7 8 11 11 9 7 6 5 3 3 4 4 3 1 0 0 0
0 0 0 0 0 0 0 0 0 0 0 1 0 2 9 16 18 21 28 33 31 28 25 18 10 7 6 7 7 8 9 8 5 2 1 1 2 2 2 1 1 0 0 0
0 0 0 0 0 0 0 0 0 0 0 0 0 3 10 14 16 21 28 34 32 28 25 18 12 8 7 6 5 6 8 8 4 2 1 1 1 0 0 0 1 0 0 0
0 0 0 0 0 0 0 0 0 0 0 0 0 3 7 10 13 20 29 35 34 29 25 20 14 11 8 5 3 4 7 7 4 2 2 1 0 0 0 0 0 0 0 0
0 0 0 0 0 0 0 0 0 0 0 0 0 1 4 5 8 15 25 33 34 30 26 23 19 15 12 8 6 7 9 7 5 4 3 1 0 0 1 0 0 0 0 0
0 0 0 0 0 0 0 0 0 0 0 0 0 0 1 2 3 8 18 28 33 31 28 25 23 21 17 14 12 13 15 12 7 5 5 2 0 0 0 0 0 0 0 0
0 0 0 0 0 0 0 0 0 0 0 0 0 0 0 0 1 5 13 25 31 30 28 26 26 26 22 19 18 20 23 20 11 7 6 3 0 0 0 0 0 0 0 0
1 0 0 0 0 0 0 0 0 0 0 0 0 0 0 0 1 4 13 25 30 29 27 27 29 30 26 21 20 24 30 27 16 8 4 2 0 0 0 0 0 0 0 0
1 0 0 0 0 0 0 0 0 0 0 0 0 0 0 1 1 3 12 23 30 29 26 27 31 33 28 21 21 27 32 28 18 8 4 1 0 0 0 0 0 0 0 0
1 0 0 0 0 0 0 0 0 0 0 0 0 0 0 1 1 3 9 20 28 29 27 31 34 34 30 25 25 30 32 27 17 9 5 2 1 0 0 0 0 0 0 0
0 0 0 0 0 0 0 0 0 0 0 0 0 0 0 2 2 4 10 21 30 33 35 41 44 42 38 35 34 32 30 25 19 12 7 4 2 0 0 0 1 1 1 1
0 0 0 0 0 0 0 0 0 0 0 0 0 0 0 1 3 5 14 27 35 40 48 55 62 61 54 49 44 36 30 27 22 17 12 9 5 2 1 1 2 2 2 2
1 0 0 0 0 0 0 0 0 0 0 0 0 0 0 1 2 5 15 30 40 46 55 66 75 75 67 60 52 42 35 32 27 21 16 13 10 6 4 3 3 3 3 3
2 2 1 0 0 0 0 0 0 0 0 0 0 0 0 1 3 6 15 30 42 48 56 69 77 76 71 65 57 48 42 38 31 23 17 14 12 10 7 5 3 3 3 3
3 3 2 1 0 0 0 0 0 1 1 2 3 2 1 3 6 10 17 31 43 48 56 70 77 74 69 64 58 51 46 41 33 24 18 14 12 10 9 7 5 5 4 4
3 3 2 1 0 0 0 1 1 2 4 5 6 4 2 3 6 11 18 31 42 47 56 72 79 74 66 62 58 53 47 41 30 20 15 12 10 10 10 9 9 8 7 6
3 3 1 0 0 0 1 2 2 3 6 9 9 7 5 3 4 10 18 29 40 46 57 70 74 70 67 63 60 54 47 36 24 15 12 10 10 11 11 12 12 12 11 10
3 2 1 0 0 0 1 2 2 3 8 12 12 12 12 9 9 14 21 30 39 49 61 69 68 67 70 69 65 58 47 33 20 13 12 13 14 14 14 15 15 14 12 12
1 1 0 0 0 0 1 2 3 5 9 11 11 13 16 17 18 20 25 32 42 53 62 68 70 73 76 75 71 62 50 37 23 16 16 17 16 15 15 18 19 15 12 11
0 0 0 1 1 2 3 4 4 7 8 7 7 9 12 16 19 23 28 35 43 51 57 64 74 82 83 79 73 64 56 44 29 21 21 22 18 14 14 19 19 15 12 11
0 0 1 1 2 3 4 4 3 5 5 4 4 5 6 8 13 21 30 38 45 52 57 62 73 84 86 81 72 66 62 52 37 29 29 27 21 15 15 17 16 13 11 10
1 1 1 1 2 2 3 2 1 1 2 2 3 3 4 6 9 19 32 43 51 58 61 64 72 82 84 79 70 64 64 59 47 37 33 28 22 16 15 16 14 10 8 8
4 3 2 2 2 2 2 2 1 0 0 2 5 5 6 8 11 19 32 45 55 61 62 64 70 76 77 72 65 61 62 61 52 39 30 23 17 13 13 13 10 6 4 4
5 5 5 4 4 3 2 2 1 0 0 2 7 8 8 10 15 20 30 45 57 60 60 64 67 70 69 65 60 59 60 61 53 39 27 18 13 11 11 10 7 3 1 1
Wind_Speed
14 13 12 12 12 11 11 8 5 2 3 5 5 6 9 10 9 10 12 12 12 12 12 11 10 11 10 8 7 6 6 4 3 3 3 3 3 3 4 4 4 4 3 3
14 15 14 13 11 10 10 8 6 4 5 5 5 6 9 10 10 11 13 13 14 14 13 12 11 10 10 9 7 7 6 5 4 4 3 2 3 3 4 4 3 4 3 2
18 13 12 14 12 11 9 8 8 8 7 7 6 7 8 10 9 10 12 14 15 15 15 13 12 11 10 9 8 7 7 5 4 4 3 4 3 2 4 4 3 3 3 3
17 14 13 13 11 10 9 8 9 8 8 7 8 6 8 11 11 11 12 14 15 15 15 14 13 11 10 10 9 8 7 6 4 3 3 3 4 4 4 4 4 3 3 3
15 14 15 13 11 9 9 8 8 9 9 9 8 6 6 11 13 13 13 15 16 16 16 15 14 12 11 11 11 9 8 6 5 4 4 2 3 4 4 5 5 4 3 3
18 15 13 12 10 10 9 9 7 6 6 8 10 8 5 10 14 16 16 16 17 17 17 16 14 13 11 11 11 10 8 6 5 5 5 3 4 4 5 4 4 3 3 3
18 18 15 12 12 11 10 8 4 4 5 7 8 6 5 9 12 15 18 17 18 17 17 16 16 14 12 12 12 11 10 7 6 6 5 5 5 4 4 3 3 2 3 3
14 15 14 13 12 11 11 10 8 6 5 3 4 3 4 8 9 12 16 18 18 18 17 17 17 15 13 13 12 12 10 8 7 6 5 5 4 3 3 2 2 2 3 5
12 11 9 11 13 14 12 11 10 8 5 3 3 2 4 6 10 12 15 17 18 18 18 17 17 16 14 13 12 12 11 9 8 8 6 5 4 2 4 3 1 2 3 4
11 11 9 10 11 14 14 10 7 6 5 5 3 3 4 7 10 12 14 16 17 17 18 17 17 16 15 13 12 13 12 10 9 8 7 7 5 4 4 3 3 4 4 4
11 12 10 11 13 13 11 11 8 6 4 4 3 1 5 9 9 11 14 16 17 17 17 17 16 16 15 15 14 13 12 11 9 8 7 7 6 5 4 3 3 4 3 3
9 9 10 11 10 10 11 11 9 7 6 5 3 1 5 10 12 11 13 15 16 16 16 17 17 16 15 15 15 13 13 12 10 8 7 7 6 6 5 4 4 4 3 3
5 5 8 8 7 7 9 11 11 9 6 6 4 4 5 7 10 12 13 14 15 15 16 16 15 15 14 14 14 14 13 12 11 10 9 7 7 6 5 5 4 4 4 3
5 8 9 7 2 4 10 14 14 11 7 6 5 4 6 7 9 11 13 14 15 15 14 14 13 12 12 12 12 13 13 13 12 11 9 8 7 7 6 5 5 5 4 4
8 10 10 8 7 6 11 17 16 13 11 8 6 5 6 7 6 9 13 14 14 14 14 14 13 12 12 12 12 12 12 12 11 10 9 8 7 7 6 6 5 5 5 5
6 9 10 9 9 10 12 14 14 14 14 11 7 5 4 5 5 6 11 15 15 15 16 15 15 14 13 12 12 11 11 11 10 10 9 9 8 8 7 6 6 5 5 4
6 6 9 10 7 7 11 14 13 13 13 9 7 3 6 6 6 8 10 14 14 15 15 14 15 14 12 13 11 11 11 10 10 9 9 9 8 8 8 8 7 6 5 5
9 8 6 7 7 11 9 7 9 10 7 5 2 2 5 6 4 5 7 10 13 13 14 13 13 14 13 13 12 11 12 11 11 10 9 9 9 8 8 6 6 6 5 4
11 7 6 6 8 9 8 7 6 5 2 3 2 2 2 5 5 5 6 8 10 12 11 12 13 14 13 13 12 12 12 12 12 12 10 10 9 8 8 7 6 5 5 4
10 7 6 6 8 6 7 9 6 4 2 4 4 4 2 1 3 3 4 6 8 10 10 12 13 14 13 12 12 12 13 13 12 11 10 9 8 8 7 7 6 5 5 5
8 9 9 9 8 3 4 8 5 2 1 5 6 6 4 4 3 2 3 5 6 8 10 11 11 12 12 12 12 12 11 11 10 10 9 8 8 7 7 6 5 5 5 6
4 4 5 6 7 3 3 3 2 2 4 5 5 5 4 4 3 3 4 5 5 7 10 11 9 10 11 12 12 11 9 9 8 8 8 8 8 8 8 6 6 5 5 6
3 4 3 2 2 2 2 4 2 2 3 4 4 4 3 2 2 2 4 5 6 7 8 9 10 10 10 11 11 11 9 8 8 8 8 7 7 6 5 7 7 6 6 6
4 3 2 2 1 1 3 3 2 3 4 5 4 3 3 3 2 2 4 5 5 6 7 8 10 10 10 10 10 9 8 8 8 8 7 6 6 7 6 5 6 7 7 7
4 4 2 0 1 2 4 5 5 5 5 5 4 4 4 3 3 3 4 5 5 6 6 7 8 9 10 9 9 9 8 8 8 8 7 7 7 7 5 6 5 6 5 5
4 4 3 2 4 4 4 5 6 5 5 5 5 5 4 3 3 3 3 4 5 6 6 6 8 9 9 9 9 8 8 8 8 8 7 7 7 6 7 7 7 9 9 7
Wind_Direction
234 238 244 247 247 259 277 289 293 236 212 220 200 179 173 176 171 159 154 151 149 147 144 142 139 134 132 128 123 121 120 126 132 129 138 138 134 127 114 113 106 96 81 73
239 239 252 262 261 264 271 279 281 249 219 217 209 204 185 176 175 167 161 155 153 148 149 148 148 143 139 141 140 136 132 131 120 110 107 114 118 116 105 94 94 88 78 53
236 236 235 248 253 260 262 262 260 255 239 223 220 220 195 174 172 170 163 159 157 157 157 156 154 150 148 148 148 133 124 120 116 134 132 120 119 122 118 121 108 95 90 75
244 241 244 248 254 257 259 250 258 257 252 247 232 234 198 175 176 176 168 166 165 162 160 160 158 154 152 149 141 130 126 120 123 133 115 145 135 125 119 118 111 104 90 93
248 243 246 248 252 257 264 262 261 264 263 266 246 248 187 174 185 184 181 175 169 165 163 164 163 159 157 149 143 137 130 127 126 123 120 120 113 123 119 111 120 124 116 107
257 254 251 252 248 251 258 263 273 293 286 270 260 253 188 192 193 184 180 177 170 167 165 164 161 158 156 152 145 142 141 141 142 132 120 107 102 102 112 120 137 155 139 123
247 251 247 245 245 239 240 246 249 259 247 254 263 257 179 194 182 172 171 175 171 167 165 163 163 163 162 157 150 149 149 152 153 143 134 129 122 127 133 141 149 147 135 119
249 246 239 238 239 238 236 242 244 258 255 272 274 254 169 159 161 159 162 168 169 168 167 167 168 167 167 162 156 153 155 157 155 143 136 134 142 165 143 118 111 119 92 100
255 261 249 240 239 241 238 241 247 260 266 267 244 198 152 147 148 152 157 164 170 170 170 171 169 168 167 164 161 156 158 159 158 151 147 149 152 118 110 122 131 104 98 121
254 266 257 252 246 238 238 239 245 247 257 270 244 210 182 181 165 164 165 167 169 170 171 171 169 168 168 166 161 158 160 161 160 157 166 159 153 131 126 145 118 94 92 90
248 258 248 235 227 237 236 242 254 273 266 268 274 239 169 190 184 177 175 168 168 171 173 171 169 168 168 168 165 162 161 164 167 168 171 145 155 149 153 162 136 120 120 132
255 255 256 244 251 249 249 244 243 253 270 267 269 223 188 181 177 184 175 169 167 172 174 170 168 168 171 170 168 166 165 168 170 166 163 159 158 159 168 166 152 147 157 172
302 277 267 254 262 267 263 257 246 243 247 262 255 185 186 173 174 177 168 168 166 171 172 167 167 168 171 170 169 168 169 169 169 167 170 167 165 163 169 165 159 163 172 189
275 258 260 253 238 305 286 284 273 259 248 251 265 187 201 188 181 167 164 166 166 170 168 165 163 165 167 166 165 166 171 168 168 169 174 168 166 164 170 170 170 178 182 195
269 258 254 235 201 215 256 269 273 264 251 246 245 230 202 194 184 176 165 163 167 170 173 167 163 163 163 162 163 166 169 166 166 169 172 166 166 165 171 175 180 185 195 202
280 275 273 259 223 224 243 262 259 257 253 238 216 230 193 176 180 190 173 168 170 173 180 173 168 166 166 165 168 167 166 162 162 170 173 167 171 171 175 181 186 190 197 206
282 273 269 262 250 251 249 245 241 249 254 248 240 195 160 169 176 180 175 174 176 178 179 174 171 170 169 169 168 166 164 160 164 172 175 170 175 178 181 192 190 192 195 202
260 274 263 262 266 249 243 261 266 254 253 260 257 162 161 158 172 169 175 176 176 179 178 174 172 169 170 169 166 165 165 165 170 176 181 175 180 185 183 194 192 188 192 204
235 237 255 262 257 266 289 288 294 288 299 340 292 249 168 148 165 178 184 177 171 176 172 168 172 172 169 170 167 167 170 172 178 183 185 182 183 186 185 192 192 187 195 207
232 222 230 245 252 245 276 303 323 309 292 360 11 9 17 124 207 160 156 161 166 171 164 165 169 166 162 162 162 171 176 178 184 185 184 181 179 186 188 189 186 190 198 214
229 223 230 239 249 246 278 313 323 256 28 21 34 30 26 43 26 60 120 139 149 150 150 155 159 160 159 158 161 172 178 180 181 180 176 175 175 182 187 184 181 188 203 217
275 250 236 242 247 249 341 1 15 10 13 37 36 27 34 53 52 77 110 128 146 146 149 152 149 149 151 156 161 171 176 171 171 172 172 174 174 192 193 182 185 195 209 219
250 241 239 241 226 103 66 85 73 333 15 19 29 29 24 59 71 100 126 136 146 141 140 145 144 143 149 157 164 173 170 162 164 167 170 171 173 193 194 182 191 201 209 228
289 273 211 205 248 0 21 55 54 21 24 8 7 21 24 55 60 97 122 126 130 132 135 142 147 151 154 161 166 167 161 160 163 168 168 170 177 189 201 197 201 210 215 220
290 298 295 238 26 32 33 20 1 20 15 355 358 28 43 51 73 86 101 117 127 130 137 144 147 153 157 158 163 166 162 162 168 170 172 181 191 197 206 207 215 221 222 220
337 346 349 351 350 346 358 353 1 11 7 357 13 28 34 51 80 91 103 114 122 130 134 142 151 157 158 159 163 164 163 166 171 177 182 193 200 198 204 211 221 227 231 225